Location: Altmatt
(47.1333°N, 8.7000°E)
Time: 03:25:27
(UTC+00:00)

Cosmos 1943 Rocket - Visible Passes

Search period start: 23 October 2020 00:00
Search period end: 02 November 2020 00:00
Orbit: 814 x 842 km, 71.0° (Epoch: 22 October)

Date Brightness Start Highest point End Pass type
(mag) Time Alt. Az. Time Alt. Az. Time Alt. Az.
23 Oct 4.7 18:12:20 10° WNW 18:14:35 12° NW 18:16:50 10° N visible
24 Oct 4.7 17:52:34 10° WNW 17:55:13 13° NW 17:57:53 10° N visible
25 Oct 4.6 17:32:52 10° WNW 17:35:52 15° NW 17:38:53 10° N visible
26 Oct 4.5 17:13:12 10° WNW 17:16:31 16° NW 17:19:51 10° N visible
27 Oct 4.5 16:53:35 10° W 16:57:11 17° NW 17:00:47 10° N visible
